CAPE
7 4 2 2 1 5 2 1 3 1 3 4 3 4 4 5 1 0 0 0 0 0 0 0 0 0 0 0 0 0 0 0 0 0 0 0 0 0 0 0 0 0 0 92 869
7 1 3 4 3 2 5 4 2 4 2 6 7 4 1 2 0 0 0 0 0 0 0 0 0 0 0 0 0 0 0 0 0 0 0 0 0 0 0 0 0 0 16 568 945
6 3 3 1 5 4 4 2 7 3 5 6 10 6 8 3 0 0 0 0 0 0 0 0 0 0 0 0 0 0 0 0 0 0 0 0 0 0 0 0 0 0 0 379 971
1 9 4 3 3 4 1 2 2 2 2 4 4 10 9 0 0 0 0 0 0 0 0 0 0 0 0 0 0 0 0 0 0 0 0 0 0 0 0 0 0 0 0 132 1013
5 5 3 4 5 5 6 6 5 3 5 2 5 12 10 1 0 0 0 0 0 0 0 0 0 0 0 0 0 0 0 0 0 0 0 0 0 0 0 0 0 0 0 0 376
3 3 1 1 0 0 0 0 1 2 7 1 5 16 12 0 0 0 0 0 0 0 0 0 0 0 0 0 0 0 0 0 0 0 0 0 0 0 0 0 0 0 0 0 4
6 4 3 2 2 2 0 0 0 1 4 8 8 17 9 0 0 0 0 0 0 0 0 0 0 0 0 0 0 0 0 0 0 0 0 0 0 0 0 0 0 0 0 0 122
4 1 0 0 0 1 8 1 0 4 6 3 8 9 4 0 0 0 0 0 0 0 0 0 0 0 0 0 0 0 0 0 0 0 0 0 0 0 0 0 0 0 0 0 171
3 2 0 0 0 2 6 4 2 2 2 4 4 7 0 0 0 0 0 0 0 0 0 0 0 0 0 0 0 0 0 0 0 0 0 0 0 0 0 0 0 0 0 0 20
5 4 1 1 1 0 6 5 0 0 0 2 10 3 0 0 0 0 0 0 0 0 0 0 0 0 0 0 0 0 0 0 0 0 0 0 0 0 0 0 0 0 0 0 2
2 5 3 5 1 4 10 0 0 0 0 0 0 0 0 0 0 0 0 0 0 0 0 0 0 0 0 0 0 0 0 0 0 0 0 0 0 0 0 0 0 0 0 0 0
1 3 4 11 5 4 0 0 0 1 0 0 0 0 0 0 0 0 0 0 0 0 0 0 0 0 0 0 0 0 0 0 0 0 0 0 0 0 0 0 0 0 0 0 0
1 2 5 9 1 0 0 0 0 0 0 0 0 0 0 0 0 0 0 2 0 0 0 0 0 0 0 0 0 0 0 0 0 0 0 0 0 0 0 0 0 0 0 0 0
1 6 4 3 0 0 0 0 0 0 0 0 0 0 0 0 0 0 0 0 11 0 0 0 0 0 0 0 0 0 0 0 0 0 0 0 0 0 0 0 0 0 0 0 0
2 4 6 10 0 0 0 0 0 0 0 0 24 0 87 19 5 7 1 0 0 0 19 0 0 0 0 0 0 0 0 0 0 0 0 0 0 0 0 0 0 0 0 0 0
5 4 3 0 0 0 0 0 0 0 0 0 3 17 6 1 17 10 3 0 0 0 30 0 4 0 0 0 0 0 0 0 0 0 0 0 0 0 0 0 0 0 0 0 0
4 0 0 0 0 0 0 0 0 0 0 0 0 4 0 1 0 0 4 2 0 1 8 45 56 0 13 2 0 3 0 0 0 0 0 0 0 0 0 0 0 0 0 0 0
0 0 0 0 0 0 0 0 0 0 0 0 0 0 0 4 27 8 0 0 0 6 0 10 6 20 19 10 0 2 0 0 0 0 0 0 0 0 0 0 0 0 0 0 0
0 0 0 0 0 0 0 0 0 0 2 5 0 0 0 0 3 11 0 0 3 27 15 6 8 1 17 0 0 0 0 0 0 0 0 0 0 3 0 0 0 0 0 0 0
0 0 0 0 0 0 0 0 0 0 2 2 0 0 0 0 0 6 0 2 0 12 23 15 15 21 15 27 1 0 0 0 0 0 0 0 0 0 1 0 0 19 9 0 1
0 0 0 0 0 0 1 0 0 0 4 0 0 1 0 2 1 0 0 2 5 0 0 30 0 5 3 8 0 0 0 0 0 0 0 0 0 8 8 0 23 30 5 0 0
0 0 0 0 0 0 2 0 2 0 3 0 1 0 0 0 0 1 0 0 17 2 5 17 1 0 0 0 0 0 0 0 0 0 0 0 0 1 0 0 19 15 0 0 0
0 0 0 0 0 1 0 0 1 1 1 0 0 0 1 3 1 0 0 11 23 0 3 22 3 0 0 0 0 0 0 0 0 0 0 0 0 0 1 1 1 0 0 0 0
0 0 0 0 0 0 0 1 2 1 2 2 1 2 0 1 1 0 2 21 18 15 14 21 6 0 0 0 0 0 0 0 0 0 0 0 17 20 0 3 0 0 0 0 0
0 0 2 1 0 0 0 0 2 2 1 4 0 1 2 0 1 1 1 1 2 0 2 16 5 0 0 0 0 0 0 0 0 0 0 18 84 76 28 0 0 0 0 0 0
3 1 2 2 1 0 0 0 2 1 1 0 1 1 1 1 2 0 2 2 5 1 1 0 4 4 6 54 17 0 0 0 0 2 35 54 60 29 1 0 0 0 0 0 0
8 8 2 1 0 0 1 2 1 2 1 3 2 1 0 2 2 1 1 1 1 3 5 0 0 0 1 15 40 10 3 0 0 36 14 9 66 6 0 0 0 0 0 0 0
CIN
-0 -1 -0 -0 -0 -0 -0 -0 -2 0 -1 -1 -0 -0 -0 -0 -0 0 0 0 0 0 0 0 0 0 0 0 0 0 0 0 0 0 0 0 0 0 0 0 0 0 0 -184 -311
-0 -0 -0 -0 -0 -0 -0 -0 -0 -1 -1 -1 -0 -0 -0 -1 0 0 0 0 0 0 0 0 0 0 0 0 0 0 0 0 0 0 0 0 0 0 0 0 0 0 -78 -275 -269
-0 -0 -0 -0 0 -0 0 0 0 -0 -0 -0 -1 -1 -1 -1 0 0 0 0 0 0 0 0 0 0 0 0 0 0 0 0 0 0 0 0 0 0 0 0 0 0 0 -223 -173
-1 0 -0 -0 0 0 0 -0 -0 -0 -0 0 -0 -2 -2 0 0 0 0 0 0 0 0 0 0 0 0 0 0 0 0 0 0 0 0 0 0 0 0 0 0 0 0 -189 -150
-0 0 -0 -0 -0 0 -0 -0 -0 -0 -0 -1 -1 -2 -1 0 0 0 0 0 0 0 0 0 0 0 0 0 0 0 0 0 0 0 0 0 0 0 0 0 0 0 0 0 -181
-0 -0 0 0 0 0 -0 0 0 -0 -0 -0 -1 -2 0 0 0 0 0 0 0 0 0 0 0 0 0 0 0 0 0 0 0 0 0 0 0 0 0 0 0 0 0 0 -208
0 -0 0 0 0 -0 -0 0 0 -0 -0 -0 -0 -0 0 0 0 0 0 0 0 0 0 0 0 0 0 0 0 0 0 0 0 0 0 0 0 0 0 0 0 0 0 0 -146
-0 -0 0 0 0 0 -0 0 0 -0 -0 -0 0 -1 0 0 0 0 0 0 0 0 0 0 0 0 0 0 0 0 0 0 0 0 0 0 0 0 0 0 0 0 0 0 -144
-0 0 -0 0 0 0 0 0 0 -0 -0 -0 -0 -0 0 0 0 0 0 0 0 0 0 0 0 0 0 0 0 0 0 0 0 0 0 0 0 0 0 0 0 0 0 0 -186
0 0 0 -0 -0 0 0 0 0 0 0 -0 -2 -0 0 0 0 0 0 0 0 0 0 0 0 0 0 0 0 0 0 0 0 0 0 0 0 0 0 0 0 0 0 0 -60
-0 0 0 0 -0 0 0 0 0 0 0 0 0 0 0 0 0 0 0 0 0 0 0 0 0 0 0 0 0 0 0 0 0 0 0 0 0 0 0 0 0 0 0 0 0
-0 -0 0 0 0 0 -0 0 0 -5 0 0 0 0 0 0 0 0 0 0 0 0 0 0 0 0 0 0 0 0 0 0 0 0 0 0 0 0 0 0 0 0 0 0 0
0 0 0 0 -0 0 0 0 0 0 -0 0 0 0 0 0 0 0 0 -1 0 0 0 0 0 0 0 0 0 0 0 0 0 0 0 0 0 0 0 0 0 0 0 0 0
0 0 0 -0 0 0 0 0 0 0 0 0 0 0 0 0 0 0 0 0 -0 0 0 0 0 0 0 0 0 0 0 0 0 0 0 0 0 0 0 0 0 0 0 0 0
0 0 0 0 0 0 0 0 0 0 0 0 -21 0 -8 -57 -10 -25 -7 0 0 0 -0 0 0 0 0 0 0 0 0 0 0 0 0 0 0 0 0 0 0 0 0 0 0
0 0 0 0 0 0 0 0 0 0 0 0 -5 -12 -35 -6 -6 -1 -38 0 0 0 -1 0 -2 0 0 0 0 0 0 0 0 0 0 0 0 0 0 0 0 0 0 0 0
0 0 0 0 0 0 0 0 0 0 0 0 0 -42 -35 -45 -0 0 0 -0 -0 -1 -1 -0 -8 0 -14 -23 -1 -1 0 0 0 0 0 0 0 0 0 0 0 0 0 0 0
0 0 0 0 0 0 0 -0 0 0 0 0 0 0 0 -55 -23 -9 0 0 -0 -1 0 -0 -2 -9 -17 -27 0 -3 0 0 0 0 0 0 0 0 0 0 0 0 0 0 0
0 0 0 0 0 0 0 0 0 0 0 0 0 0 0 0 -1 -1 0 0 -0 -4 -4 -1 -2 -17 -6 0 0 -2 0 0 0 0 0 0 0 -143 0 0 0 0 0 0 0
0 0 0 0 0 0 0 0 0 0 0 0 0 -0 0 0 0 -1 0 0 0 -25 -21 -47 -4 -27 -16 -11 -11 0 0 0 0 0 0 0 0 0 -77 0 0 -310 -357 0 0
0 0 0 0 0 0 0 0 0 0 0 0 0 -0 -0 -3 -1 0 0 -0 0 -0 0 -30 -2 -5 -8 -6 0 0 0 0 0 0 0 0 0 -163 -131 0 -222 -268 -252 0 0
0 0 0 0 0 -2 0 0 0 0 0 0 0 0 0 0 -0 -1 0 -0 -5 -2 -1 -12 -1 0 0 0 0 0 0 0 0 0 0 0 0 -7 0 0 -228 -253 0 0 0
0 0 0 0 0 -0 -0 0 -0 0 0 0 0 0 0 -0 -0 -1 0 -2 -10 0 -0 -11 -6 0 -2 0 0 -4 0 0 0 0 0 0 0 0 -43 -21 0 0 0 0 0
0 0 0 0 -2 -2 0 -0 0 0 0 0 0 0 0 0 -2 0 0 -14 -6 -0 -1 -2 -6 0 0 0 0 0 0 0 0 0 0 0 -121 -103 0 -226 0 0 0 0 0
0 0 -1 0 0 0 0 -4 0 0 0 0 0 0 0 0 0 0 0 0 -0 -1 -2 -6 -12 0 0 0 0 0 0 0 0 0 0 -93 -79 -182 -232 0 0 0 0 0 0
-0 -0 -0 0 0 -0 -1 -0 0 0 0 0 0 0 0 0 0 0 0 0 -1 0 0 0 -17 -39 -30 -3 -0 -0 -7 0 0 -71 -70 -128 -162 -215 -180 0 0 0 0 0 0
-1 -3 -1 -1 0 -0 -0 0 0 0 0 0 0 0 0 0 0 0 0 0 0 -0 0 0 0 0 -4 -17 -6 -0 -10 -12 -14 -109 -73 -31 -194 -209 0 0 0 0 0 0 0
Wind_Speed
37 37 37 37 37 38 39 39 38 39 38 37 37 38 38 39 40 40 36 25 19 21 18 18 14 12 15 18 17 17 31 38 35 33 35 26 27 26 25 27 26 24 26 25 10
38 37 37 38 39 39 39 39 39 39 39 38 37 38 38 39 43 44 32 24 19 22 17 17 16 13 19 20 20 22 34 35 27 28 31 29 32 31 29 31 30 28 24 18 11
38 39 38 39 40 41 41 41 41 40 40 38 38 38 36 38 38 30 20 14 15 15 20 20 20 19 24 22 24 27 40 29 27 26 29 32 33 30 32 36 30 29 25 18 16
40 40 40 41 42 42 43 43 43 42 42 40 39 37 35 31 35 21 11 21 22 12 13 17 19 24 29 29 26 35 33 28 26 27 27 29 29 34 30 34 32 29 26 20 18
41 42 43 43 44 44 45 44 44 43 42 41 39 36 33 34 32 27 32 33 27 15 18 19 21 24 29 31 30 35 34 30 32 32 32 34 40 38 36 34 36 36 33 29 23
42 43 44 46 47 47 48 48 47 46 44 41 38 34 35 48 32 30 33 32 27 23 25 23 26 24 30 33 28 29 34 38 33 31 28 31 40 31 27 26 30 34 34 30 28
44 45 47 48 49 49 50 52 52 50 48 44 39 35 41 42 28 28 29 29 25 22 26 25 25 25 29 32 37 38 38 35 31 31 34 33 46 36 31 31 36 31 28 27 26
45 46 49 50 50 51 52 54 56 56 52 44 37 37 50 36 33 40 43 48 38 31 27 26 28 30 31 31 29 27 30 38 30 27 27 20 42 28 23 25 29 32 28 27 25
46 46 47 48 51 53 54 56 58 52 44 34 32 32 50 37 37 33 31 35 34 39 31 27 26 33 32 35 36 34 37 31 30 22 26 25 32 29 27 26 27 29 26 25 25
46 47 48 49 52 54 56 57 49 36 31 22 28 35 37 36 30 27 23 23 26 27 33 32 32 38 41 39 45 38 34 32 30 26 26 30 33 31 25 20 23 22 19 20 22
47 48 49 51 53 54 57 45 42 41 35 37 39 44 42 33 26 26 22 17 24 25 37 34 41 49 43 41 38 33 35 34 32 26 25 32 34 32 28 26 25 26 27 25 24
48 49 51 52 53 54 41 43 40 37 56 43 42 45 45 43 49 45 22 33 32 37 32 34 53 42 37 37 40 42 36 34 29 22 25 28 32 30 27 28 25 25 26 24 27
49 51 52 53 53 39 41 38 30 32 41 43 32 32 30 26 39 48 38 37 41 40 37 44 35 38 36 37 39 39 38 32 30 25 26 29 35 32 27 26 25 23 23 23 23
50 51 51 52 40 39 39 31 28 28 37 34 21 20 21 22 22 23 25 35 41 48 39 44 38 31 39 42 37 41 33 30 29 27 32 24 34 26 25 28 24 22 20 21 23
50 50 49 41 36 40 31 26 23 18 31 25 19 18 21 20 25 14 15 17 40 42 38 45 38 41 41 40 34 37 27 31 27 27 29 29 28 25 20 21 17 15 13 17 22
50 50 44 34 32 29 19 7 14 21 24 12 15 27 30 24 21 22 21 10 22 33 39 43 31 34 36 30 29 25 26 25 24 27 38 31 26 27 21 18 17 14 14 15 17
49 45 35 29 35 25 13 10 21 21 7 9 6 27 32 20 20 23 20 8 9 20 36 38 39 34 29 31 32 26 27 29 31 32 34 25 24 21 19 19 17 14 12 11 12
47 37 28 26 20 11 19 15 25 13 6 6 5 23 20 21 18 17 23 13 20 14 22 34 41 35 32 33 32 32 31 31 34 33 28 19 25 23 17 14 11 11 11 9 9
43 30 31 28 14 16 14 18 17 12 12 9 16 14 19 19 19 17 11 17 24 10 17 27 33 28 28 27 28 36 37 24 21 23 24 24 21 18 15 11 10 10 9 8 7
39 29 31 15 13 18 16 14 13 14 13 9 3 6 21 20 18 13 13 16 25 32 22 20 23 24 22 22 23 31 28 32 25 27 26 27 25 21 15 9 8 7 5 3 3
33 30 28 23 19 22 14 12 11 13 14 12 8 9 19 21 19 17 11 12 19 30 32 20 14 23 22 27 28 25 31 30 22 20 25 25 26 19 12 8 6 5 1 2 3
34 32 24 32 35 20 10 11 11 13 11 12 10 5 18 20 18 18 14 12 18 13 26 22 23 16 27 23 25 17 24 26 27 23 20 20 22 14 11 10 7 4 2 1 3
35 25 22 34 36 23 11 10 13 14 10 12 11 6 17 20 19 18 16 15 18 17 22 28 21 20 15 21 34 33 27 31 19 19 21 18 20 15 12 11 7 5 3 2 4
31 31 25 30 15 24 20 10 17 13 5 7 5 4 15 15 21 19 17 13 15 14 21 22 23 27 23 25 21 35 32 27 29 27 19 20 13 15 15 13 7 3 3 3 3
32 27 24 23 29 21 22 6 22 19 11 6 3 15 17 10 14 17 15 14 13 18 19 26 28 21 10 15 20 26 26 32 35 22 26 14 12 15 17 12 7 4 5 4 1
32 28 22 13 20 20 17 16 17 21 9 9 11 19 17 15 16 19 17 15 12 17 18 17 25 22 17 14 21 28 29 34 31 22 14 11 13 14 14 9 7 5 6 3 0
25 21 20 18 28 24 18 21 23 19 4 8 17 17 18 18 19 21 21 19 16 12 15 11 17 18 16 20 20 25 26 26 23 24 13 22 18 14 11 12 8 5 4 2 1
Wind_Direction
333 331 330 328 327 324 320 317 316 315 313 313 310 307 305 302 296 293 293 299 300 292 296 296 300 287 279 276 279 281 269 265 266 268 264 276 270 269 270 268 270 282 285 290 278
337 335 333 329 325 323 321 319 317 316 314 313 312 310 307 304 294 286 299 298 291 291 279 272 279 277 274 273 273 268 267 268 277 274 272 273 268 268 267 266 267 276 289 291 264
341 336 334 330 327 322 320 319 317 317 316 315 313 312 310 308 302 302 316 312 306 291 278 275 272 272 271 274 268 270 264 273 277 278 276 271 269 271 266 262 264 270 280 282 266
343 340 336 332 328 326 322 319 317 315 313 312 311 311 309 308 295 311 315 316 306 301 287 271 267 264 268 265 268 267 270 274 276 276 279 276 275 268 269 266 267 267 275 275 264
342 339 335 331 329 327 324 322 320 317 314 312 310 308 306 295 291 295 292 296 296 281 273 269 261 261 264 269 266 265 269 273 272 273 275 276 268 268 268 272 268 266 269 267 263
343 339 335 331 329 326 324 321 318 315 313 311 310 307 297 286 301 296 293 289 284 274 268 266 270 265 266 265 263 273 268 269 273 275 277 275 269 273 272 280 270 266 266 264 260
343 340 336 333 330 326 323 319 316 313 310 308 305 301 289 284 300 297 292 291 288 278 272 259 270 257 265 266 263 265 269 272 273 271 272 276 264 268 274 273 269 268 262 266 266
342 340 336 334 332 329 326 320 314 310 307 304 301 295 287 299 292 284 280 273 273 272 274 272 261 264 260 264 268 271 269 266 269 270 277 270 268 275 278 274 272 265 264 267 266
344 343 341 339 334 331 328 323 317 314 312 306 300 293 292 303 293 290 278 272 266 260 265 267 259 256 258 257 261 261 263 266 270 267 270 266 277 281 274 272 271 267 264 264 265
347 344 342 339 336 332 329 326 322 323 325 323 309 297 297 296 298 297 293 273 270 261 250 253 254 250 249 246 247 256 256 265 271 273 263 267 272 277 280 279 272 267 264 261 262
348 345 343 340 337 334 331 332 326 317 312 303 297 290 293 298 294 290 291 274 269 258 242 241 244 241 240 244 251 259 261 263 268 269 270 266 269 270 272 275 273 268 266 266 264
348 346 344 341 339 336 339 332 326 322 308 303 294 288 287 287 280 272 268 265 259 256 242 244 243 245 249 246 247 253 257 260 267 270 266 271 271 271 271 272 271 268 267 266 267
349 347 344 342 341 347 343 340 342 336 316 313 307 302 301 294 278 271 256 257 255 251 239 242 260 242 243 243 243 246 250 256 260 267 272 272 271 270 270 273 273 271 270 269 269
349 348 347 347 351 351 347 353 352 349 327 327 327 327 324 317 298 289 267 250 251 246 243 247 247 237 238 241 239 243 246 252 256 262 260 270 267 272 268 270 270 268 266 268 270
351 351 351 356 353 353 355 3 13 27 350 6 3 333 335 339 309 310 290 253 245 241 237 245 243 242 239 239 235 246 241 244 255 259 262 261 265 265 276 270 264 269 272 275 275
353 352 356 5 2 2 9 348 30 25 15 43 17 293 300 271 243 263 287 279 259 239 243 244 249 239 240 238 234 239 235 243 252 254 254 253 256 257 267 266 270 276 275 280 284
355 355 2 6 3 14 21 31 41 33 49 62 294 292 285 252 241 297 275 141 245 229 233 235 239 239 234 232 229 220 217 235 241 244 251 246 248 261 268 269 266 270 277 288 293
356 360 12 15 10 19 36 63 33 44 11 328 310 284 253 263 244 244 279 141 161 250 226 227 229 231 227 222 225 219 219 231 237 239 242 244 245 252 267 279 271 270 279 293 304
1 15 17 18 19 50 54 53 45 31 23 8 286 265 254 249 252 238 241 164 159 212 233 227 232 222 233 223 218 216 223 225 244 246 238 244 254 259 263 268 267 267 279 289 309
6 17 20 359 47 52 55 40 35 19 9 16 343 217 254 252 243 221 257 204 206 206 227 235 226 213 226 214 223 215 214 217 239 234 238 241 241 245 244 244 253 262 278 307 335
16 19 26 324 54 53 42 39 15 16 24 63 88 227 249 246 244 230 216 242 215 213 217 225 234 218 213 223 210 209 214 219 235 244 241 236 243 246 235 228 222 241 242 81 68
17 19 28 22 4 50 9 19 354 19 20 70 87 177 235 245 239 243 230 241 178 258 223 224 224 227 225 225 213 225 209 216 223 233 247 246 241 245 234 225 212 199 187 106 68
14 25 35 356 12 324 19 24 39 346 341 66 71 70 259 238 233 228 242 262 141 173 226 219 224 216 206 219 220 223 222 218 231 238 242 242 237 236 223 218 211 150 139 114 86
21 19 29 351 315 318 318 334 332 347 357 12 77 72 302 241 220 228 252 234 262 237 226 227 221 220 227 218 208 213 216 217 227 231 237 242 215 212 212 209 206 176 157 109 117
25 26 29 20 319 309 310 332 324 331 44 348 78 314 315 250 238 229 250 254 281 306 229 215 207 220 219 200 198 208 213 216 219 230 230 228 200 201 209 204 200 170 167 119 155
23 23 24 13 292 303 307 309 320 322 323 320 307 306 294 280 264 239 246 250 276 300 225 232 201 203 200 200 206 209 215 216 221 228 236 208 228 214 209 193 181 168 177 134 222
26 26 26 29 311 306 301 305 312 316 19 324 303 294 289 285 268 246 238 234 244 256 227 227 211 199 207 209 209 208 218 217 222 232 222 233 231 188 198 205 203 185 182 140 329